GFSGBSN_700_temp_315.txt.gz
Temp
2 2 2 3 3 3 4 5 5 5 5 5 6 7 7 7 8 8 8 8 8 8 9 9 9 9 9 10 9 9 9 10 9 9 9 9 10 10 10 9 9 9 8 8 8 7 8
2 2 2 2 2 3 3 3 4 5 5 5 5 6 7 7 7 8 8 8 8 8 9 9 9 9 9 10 10 10 9 9 9 9 9 9 10 10 9 7 8 6 6 6 5 7 7
2 2 2 2 2 3 3 3 3 4 4 5 5 6 6 7 7 7 8 8 8 8 8 9 9 9 9 9 9 9 9 9 9 9 9 8 8 10 9 8 6 6 7 6 6 6 6
2 2 2 2 2 2 3 2 2 3 4 4 5 5 6 6 7 7 7 8 8 8 8 8 9 9 9 9 9 9 8 9 9 9 9 9 8 9 10 9 7 8 6 6 4 5 6
2 2 2 2 2 2 2 3 2 3 3 4 4 4 5 6 7 7 7 7 8 8 8 8 8 8 8 9 9 9 9 9 10 9 9 10 8 9 9 10 8 8 8 7 6 6 6
2 2 2 2 2 2 2 2 2 2 3 3 4 4 5 5 6 6 6 6 7 7 8 8 8 8 8 8 8 9 9 8 9 9 9 10 9 8 8 9 9 9 8 8 8 7 6
2 2 2 2 3 3 2 2 2 3 2 3 3 4 4 5 6 6 6 6 7 7 7 8 8 7 8 7 7 8 8 8 8 8 9 9 9 8 9 9 10 10 9 9 8 8 7
1 2 2 2 2 2 2 2 2 2 2 3 3 3 4 5 5 5 5 6 7 7 7 7 8 7 7 8 7 7 7 8 9 8 8 8 8 8 8 9 10 10 9 8 8 8 7
1 1 2 2 2 2 2 2 1 2 2 2 2 3 3 4 5 5 5 5 6 6 7 7 7 7 7 7 7 7 7 8 8 8 8 8 9 9 9 9 10 10 10 9 9 8 7
0 1 1 2 2 1 2 2 1 2 2 2 2 3 3 3 4 5 5 5 5 5 5 6 6 7 6 7 7 6 7 8 7 7 7 8 8 9 9 9 9 10 9 9 8 8 8
-0 0 1 1 1 2 2 2 1 2 2 2 2 2 3 3 4 5 4 4 4 4 4 6 7 6 6 6 6 6 6 7 7 7 7 7 8 8 8 8 9 9 8 8 8 8 8
-1 -1 0 1 1 1 1 2 2 1 1 2 2 2 3 3 4 4 4 4 4 4 5 5 6 6 6 5 6 7 6 6 7 7 7 7 7 8 8 8 8 8 8 8 8 8 7
-2 -1 -1 0 1 1 1 1 1 1 1 1 1 2 2 3 4 4 3 3 3 3 5 5 5 6 5 6 6 6 6 6 7 7 7 7 7 7 7 7 7 7 6 7 4 3 4
-3 -2 -1 -0 1 1 1 1 1 1 1 1 2 2 2 3 3 3 3 2 3 4 4 4 4 6 4 4 4 5 5 6 6 6 6 6 6 6 6 6 7 7 6 6 5 2 7
-4 -3 -2 -1 -0 1 1 1 1 1 1 1 1 2 2 3 2 2 2 2 4 4 5 5 3 6 4 4 4 4 4 5 5 6 6 6 6 6 6 6 7 6 6 6 6 6 6
-6 -5 -4 -2 -1 0 0 1 0 -0 1 0 1 1 1 2 2 2 2 2 3 3 4 4 5 5 6 3 4 4 5 5 5 5 6 5 6 5 5 6 6 6 6 5 6 1 3
-9 -7 -6 -4 -2 -1 -0 0 0 -1 -0 0 1 0 1 1 1 2 2 2 3 3 4 4 4 5 6 6 4 4 5 5 5 5 6 5 5 4 5 6 6 5 5 5 5 5 3
-11 -10 -8 -6 -3 -3 -1 -0 -0 -1 -1 -0 0 -0 1 1 0 0 2 3 3 3 3 4 4 5 5 6 6 4 4 5 5 5 5 5 5 5 5 5 5 6 5 5 5 5 4
-11 -11 -10 -8 -6 -4 -3 -1 -1 -1 -1 -1 -0 -1 -0 0 -0 0 2 2 3 2 3 4 4 4 4 5 6 5 4 5 5 5 4 4 3 3 3 4 5 4 5 5 4 4 5
-11 -11 -11 -10 -9 -6 -4 -2 -2 -1 -2 -2 -1 -1 -1 0 -1 0 2 2 2 2 2 4 4 4 4 5 5 5 5 5 4 4 4 4 3 4 5 5 5 5 5 4 3 3 4
-11 -11 -11 -11 -11 -9 -6 -4 -2 -2 -3 -2 -2 -1 0 0 -1 -0 1 1 2 2 2 2 3 4 4 4 4 4 4 4 4 4 4 3 3 3 4 4 4 4 4 4 4 5 3
-12 -11 -11 -11 -11 -10 -8 -6 -4 -3 -3 -2 -2 -2 -1 -0 -0 1 2 0 2 1 2 2 3 4 4 4 4 5 4 4 4 4 4 4 3 3 3 3 3 3 3 4 4 4 4
-12 -12 -12 -11 -11 -11 -10 -7 -5 -4 -3 -3 -2 -2 -1 -0 -0 -2 1 2 2 2 2 2 2 2 3 3 3 3 3 3 3 3 2 3 3 2 2 2 2 2 5 4 4 4 4
-12 -12 -12 -11 -11 -11 -10 -9 -6 -4 -4 -3 -2 -3 -1 -0 -0 2 1 2 1 1 2 2 2 2 2 2 2 2 2 3 2 2 2 2 2 1 1 1 -3 3 4 3 3 4 3
-12 -12 -12 -12 -11 -11 -11 -10 -7 -4 -4 -4 -3 -3 -2 -1 -1 -0 0 0 -0 2 2 2 2 2 2 1 1 1 1 1 1 1 1 1 0 0 1 0 2 3 3 4 3 3 3
-12 -12 -12 -12 -12 -11 -11 -10 -8 -6 -4 -4 -4 -3 -2 -1 -1 -0 1 -1 -0 1 2 2 2 2 1 1 1 1 1 1 1 1 1 0 -0 -0 -0 -0 -2 2 3 3 2 3 3
-13 -12 -12 -12 -12 -11 -11 -10 -8 -6 -5 -4 -4 -3 -3 -2 -1 -1 -0 -2 -1 0 1 1 1 1 1 1 0 0 1 1 1 1 1 0 -1 -0 -1 -1 0 1 2 2 2 2 2
-13 -12 -12 -12 -12 -11 -11 -10 -8 -6 -6 -4 -4 -3 -3 -2 -1 -1 -0 -2 -1 -1 0 1 1 0 0 -0 -0 0 0 1 0 1 1 2 0 -0 -2 -2 -1 2 1 1 2 2 1
-13 -12 -12 -12 -11 -11 -10 -10 -8 -7 -5 -5 -3 -3 -3 -2 -2 -1 -0 -1 -1 -1 -0 0 1 1 1 0 -0 -0 -0 0 1 0 1 1 2 1 1 1 1 2 1 1 1 1 1

GFSGBSN_700_temp_321.txt.gz
Temp
2 2 2 3 3 3 3 3 4 4 5 5 6 6 7 7 7 8 8 8 9 9 9 9 10 10 9 9 9 9 9 9 9 10 11 10 10 10 10 10 9 9 9 8 8 7 6
2 2 2 2 2 2 3 3 3 4 4 5 5 6 6 6 7 7 8 8 8 9 9 9 9 10 10 9 9 9 9 9 10 10 11 11 10 11 10 10 9 9 9 8 7 7 7
2 2 1 1 2 2 2 2 3 3 4 4 5 6 6 6 7 7 7 8 8 8 9 9 9 9 10 9 9 9 9 9 9 10 11 11 10 10 10 9 8 8 9 7 6 7 7
2 2 2 1 2 2 2 2 2 3 3 4 4 5 6 6 6 7 7 7 8 8 9 9 9 9 9 9 9 9 9 9 9 9 10 10 10 10 9 8 7 7 8 7 6 6 7
2 2 2 2 2 2 2 2 2 2 2 3 4 4 4 6 6 6 7 7 7 8 8 8 9 9 9 9 9 9 9 9 9 9 9 10 10 10 8 8 7 7 7 7 6 6 6
2 2 2 2 2 2 2 1 2 2 2 3 3 4 4 5 5 6 7 7 7 7 8 8 8 8 9 9 8 8 8 8 9 9 8 9 10 10 8 9 8 8 8 8 7 7 7
1 1 2 2 2 2 1 1 1 2 2 3 3 3 4 4 5 5 6 6 6 7 7 8 8 8 9 8 8 8 8 8 8 8 8 9 10 10 8 8 8 7 7 8 8 7 7
1 1 1 2 2 2 1 1 1 2 2 2 3 3 3 4 4 5 6 6 6 7 7 7 8 8 8 8 7 8 8 8 8 8 9 9 9 9 8 8 9 9 7 7 8 8 7
-0 0 1 1 1 2 2 1 1 2 2 2 2 3 3 4 4 4 5 6 6 6 6 7 7 7 8 8 7 7 7 8 8 7 7 8 8 8 7 8 8 9 9 8 8 7 7
-1 -0 -0 0 1 1 1 2 1 1 2 2 2 2 2 3 3 4 5 5 5 6 6 6 7 7 7 7 7 7 7 7 7 7 7 7 8 7 7 8 8 9 9 8 8 7 7
-2 -1 -1 -0 0 1 1 2 2 2 2 2 1 1 2 2 3 3 4 4 4 4 4 6 6 7 7 7 7 7 7 7 7 8 8 8 8 8 8 8 8 9 9 8 7 7 7
-3 -2 -1 -1 -1 0 1 1 1 2 2 2 1 2 2 2 3 3 4 4 4 4 4 5 6 6 6 6 6 7 6 7 7 7 7 8 8 8 8 8 8 8 8 7 7 7 6
-3 -3 -2 -2 -1 -1 0 0 1 1 2 2 2 2 2 2 2 2 3 3 3 4 5 5 5 5 5 6 5 6 6 6 7 7 7 7 7 8 8 8 8 7 8 7 4 2 4
-4 -4 -3 -3 -2 -1 -1 -0 0 1 1 1 1 2 1 2 2 1 3 3 3 4 5 5 5 5 5 5 5 6 6 6 6 7 7 7 6 7 7 7 7 7 7 7 4 1 5
-5 -5 -4 -3 -3 -2 -2 -1 -1 -0 1 1 1 1 1 1 1 1 2 2 3 5 5 6 5 5 5 4 4 5 6 6 6 6 7 6 7 7 7 7 7 7 6 7 6 4 3
-6 -5 -5 -4 -4 -3 -2 -2 -2 -1 -0 1 1 0 1 -0 1 1 1 2 3 4 5 5 5 5 5 4 4 5 5 5 6 6 6 6 6 6 6 6 6 6 6 5 5 1 2
-6 -6 -6 -5 -5 -4 -3 -2 -2 -2 -1 -0 0 -0 0 0 1 1 1 2 3 4 5 5 5 5 5 5 5 6 6 5 5 5 5 5 5 5 5 5 6 5 5 5 5 5 3
-7 -7 -6 -6 -5 -5 -4 -3 -2 -2 -2 -1 -1 -2 -0 -0 0 0 1 2 3 3 4 4 4 5 5 5 4 4 6 6 5 5 4 5 5 5 5 5 5 5 4 5 5 5 4
-8 -8 -7 -7 -6 -6 -5 -4 -3 -3 -2 -3 -4 -4 -2 -0 -0 1 0 2 3 3 3 4 4 4 5 5 5 5 5 5 5 5 5 5 4 4 4 5 5 5 5 5 4 4 4
-9 -9 -8 -8 -7 -6 -6 -5 -4 -4 -4 -4 -6 -4 -2 -1 -0 -0 1 1 3 2 3 4 4 4 4 4 4 4 5 5 4 5 5 5 5 5 5 5 5 4 5 4 4 3 4
-11 -11 -10 -9 -9 -9 -8 -7 -5 -5 -5 -7 -5 -4 -3 -1 -1 -1 -0 0 1 1 2 3 3 4 4 4 4 4 4 4 4 5 4 4 4 4 4 4 4 4 4 4 4 4 3
-13 -13 -12 -12 -12 -11 -11 -8 -7 -6 -6 -7 -5 -4 -4 -2 -2 -1 -1 -0 -0 1 2 3 3 3 4 4 5 4 4 4 4 4 4 3 4 4 4 4 4 3 3 4 4 5 4
-14 -13 -13 -13 -12 -12 -12 -11 -10 -8 -6 -7 -5 -4 -3 -3 -2 -1 -1 0 1 1 2 3 4 3 3 4 3 3 3 3 3 3 3 3 3 3 2 3 3 2 4 5 4 4 4
-14 -13 -13 -13 -12 -12 -12 -11 -11 -9 -6 -7 -6 -4 -4 -3 -3 -1 -0 -0 -0 1 1 2 3 3 3 3 3 3 3 3 3 3 3 2 2 2 2 1 -3 3 3 3 3 4 4
-14 -14 -14 -13 -12 -12 -12 -11 -11 -10 -7 -7 -7 -5 -4 -4 -3 -2 -1 -1 -1 -1 0 1 2 3 2 2 2 2 2 2 2 2 2 2 2 2 1 1 2 3 3 2 2 3 3
-14 -14 -14 -13 -13 -12 -12 -11 -11 -10 -8 -8 -7 -5 -4 -4 -4 -3 -2 -1 -1 -1 -0 1 2 2 2 1 2 1 2 2 2 1 1 1 1 1 0 0 -2 2 2 2 3 2 2
-14 -14 -13 -13 -13 -12 -12 -11 -11 -11 -9 -8 -8 -5 -5 -4 -4 -2 -2 -1 -1 -1 -1 1 1 1 1 1 1 1 1 2 2 1 2 1 0 0 -0 -0 0 1 2 1 1 2 2
-14 -14 -13 -13 -13 -12 -12 -12 -11 -11 -10 -8 -7 -6 -5 -4 -4 -3 -4 -2 -1 -1 -2 -1 1 1 1 1 1 1 1 2 1 1 1 1 1 0 -1 -1 -1 2 2 1 2 1 1
-14 -14 -13 -13 -12 -12 -12 -12 -11 -12 -11 -9 -8 -7 -5 -4 -3 -3 -2 -2 -2 -1 -2 -0 1 1 1 1 1 1 1 1 1 1 1 1 1 1 1 2 2 2 2 1 1 1 1

GFSGBSN_700_temp_327.txt.gz
Temp
4 3 3 4 4 4 3 3 3 3 3 4 4 5 6 6 6 7 8 8 8 8 9 9 9 9 9 9 9 8 9 8 9 9 9 9 10 9 9 9 9 9 9 8 8 6 5
3 3 4 4 4 4 3 3 3 3 3 3 3 4 5 6 6 7 7 8 8 8 8 9 9 9 9 9 9 9 9 9 9 9 9 9 9 9 9 9 9 9 9 8 7 7 6
3 3 4 4 3 3 3 2 3 3 3 2 3 3 4 5 6 6 7 8 8 8 8 9 9 9 9 9 9 9 9 9 9 9 9 9 9 10 10 9 8 8 8 7 6 5 6
3 3 3 4 4 3 3 2 2 2 3 2 2 3 3 4 5 6 7 7 8 8 8 8 9 9 9 9 9 8 9 9 9 9 9 10 10 10 9 9 8 7 7 6 5 5 6
1 2 2 3 3 4 3 3 3 2 2 2 2 2 3 4 4 5 6 7 8 8 8 8 8 9 9 9 8 8 8 9 9 9 9 10 10 9 9 9 7 6 6 6 6 6 7
1 1 1 2 3 3 3 3 3 2 2 2 2 2 2 3 4 5 6 6 7 7 8 8 8 8 8 8 8 8 8 8 9 9 9 9 10 9 8 8 7 7 7 7 7 7 7
-0 0 0 1 2 2 3 3 3 3 2 2 2 2 2 2 3 4 5 6 7 7 7 7 8 8 9 8 7 7 7 8 8 9 9 9 9 8 7 8 8 8 8 7 7 7 7
-0 -0 -0 0 0 1 2 2 3 3 3 2 2 2 2 2 3 3 4 5 6 7 7 7 8 8 8 8 7 7 7 7 7 8 8 9 9 8 8 8 8 8 8 8 7 7 7
-1 -1 -1 -0 -0 0 1 2 2 3 3 2 2 2 2 2 2 3 3 5 5 6 6 7 7 7 8 8 8 7 7 6 7 7 8 8 9 8 8 8 8 9 8 8 8 8 7
-1 -1 -1 -1 -1 -0 0 1 1 2 3 3 2 1 2 1 2 2 3 4 5 5 6 7 7 7 7 7 7 7 6 6 6 7 8 8 8 8 8 8 8 9 8 8 8 7 7
-2 -2 -2 -2 -1 -1 -0 0 0 1 2 3 2 1 1 1 1 2 2 3 4 4 3 6 6 7 7 7 7 7 6 6 6 7 7 8 7 7 8 8 8 8 8 8 7 7 7
-3 -3 -2 -2 -2 -2 -1 -1 -0 0 1 2 2 1 1 2 1 1 2 2 3 4 4 6 6 6 6 7 6 6 6 6 6 6 7 7 7 7 7 8 8 8 8 7 7 7 6
-4 -4 -4 -3 -3 -3 -2 -2 -1 -0 0 1 2 2 1 1 1 1 2 2 3 3 5 5 6 6 6 6 6 6 6 6 6 6 6 7 7 7 7 7 7 7 7 6 6 5 6
-5 -4 -4 -4 -4 -3 -3 -2 -2 -1 -0 0 1 2 2 2 1 1 2 1 2 3 5 5 5 5 5 5 5 6 5 5 6 6 6 6 6 6 6 7 7 7 7 8 6 5 6
-6 -5 -5 -4 -4 -4 -4 -3 -3 -2 -1 -0 0 1 2 1 2 1 1 0 2 4 4 5 5 5 5 5 5 5 6 6 6 6 6 6 6 6 6 6 7 6 6 7 7 4 4
-6 -6 -6 -5 -5 -4 -4 -4 -3 -3 -2 -1 -0 0 1 1 1 1 0 0 1 3 4 5 5 5 5 5 5 5 5 6 6 6 5 6 6 6 6 6 6 6 6 6 6 3 4
-7 -7 -6 -6 -6 -5 -5 -4 -4 -3 -3 -2 -1 -0 0 0 0 -1 -0 0 1 2 4 4 4 5 5 5 5 5 6 6 6 6 5 5 6 5 5 5 5 5 5 5 6 5 4
-8 -7 -7 -6 -6 -6 -5 -5 -5 -4 -3 -3 -2 -1 -0 0 -1 -2 -1 -0 -0 1 3 3 4 4 5 5 5 5 5 6 6 5 5 5 5 5 5 5 5 5 5 5 5 4 4
-8 -8 -8 -7 -7 -6 -6 -6 -5 -4 -4 -3 -3 -2 -2 -1 -1 -2 -2 -1 -0 1 1 3 3 4 4 4 4 5 5 6 5 5 5 4 4 4 4 4 5 5 5 5 4 4 4
-9 -8 -8 -8 -8 -7 -6 -6 -6 -5 -4 -4 -4 -3 -3 -2 -1 -1 -2 -1 -0 0 -1 2 3 3 4 4 4 5 5 5 5 4 4 4 4 5 5 5 5 5 5 4 4 3 4
-11 -10 -9 -9 -8 -8 -7 -7 -6 -6 -5 -5 -5 -4 -5 -3 -1 -3 -4 -2 -1 -1 0 0 2 3 3 4 4 4 4 4 4 4 4 4 4 4 5 4 4 4 4 4 4 4 3
-12 -12 -11 -10 -9 -8 -8 -8 -7 -7 -7 -6 -6 -6 -7 -6 -3 -4 -3 -3 -3 -1 -1 -0 1 2 3 3 4 4 4 4 4 4 4 4 4 4 4 4 4 4 4 4 4 4 3
-12 -12 -12 -11 -10 -9 -8 -8 -8 -8 -7 -6 -7 -6 -8 -6 -6 -5 -3 -3 -2 -1 -1 -1 1 1 2 3 3 3 3 4 4 4 4 4 4 4 3 3 3 3 4 4 4 3 3
-12 -13 -13 -12 -11 -10 -10 -9 -9 -9 -9 -8 -8 -9 -9 -7 -6 -4 -4 -4 -3 -2 -1 -1 -1 1 1 2 3 3 3 3 3 3 4 3 3 3 2 2 1 3 3 4 3 3 3
-13 -12 -13 -13 -13 -12 -12 -11 -11 -11 -11 -9 -9 -9 -8 -8 -6 -6 -5 -5 -3 -3 -2 -2 -3 -1 1 1 2 2 2 2 2 3 3 3 3 2 2 1 2 3 3 3 3 2 2
-13 -13 -13 -13 -13 -13 -13 -12 -12 -12 -12 -11 -10 -10 -9 -8 -7 -6 -5 -5 -4 -3 -3 -2 -2 -2 0 1 1 1 1 2 2 2 2 2 2 1 1 1 0 3 3 2 2 2 2
-13 -13 -13 -13 -13 -13 -13 -13 -13 -13 -12 -12 -10 -10 -10 -9 -6 -6 -5 -5 -3 -3 -4 -2 -1 -2 -1 -0 1 1 2 2 3 2 2 1 1 1 1 1 1 2 2 2 1 2 2
-14 -14 -14 -14 -14 -13 -13 -13 -13 -13 -12 -12 -11 -11 -11 -9 -6 -6 -5 -4 -4 -4 -3 -2 -2 -2 -3 -1 0 1 2 2 2 2 2 3 1 1 -0 -1 0 2 1 1 2 2 1
-14 -14 -14 -14 -14 -14 -14 -13 -13 -13 -12 -12 -12 -11 -11 -10 -7 -7 -6 -5 -5 -3 -3 -3 -2 -2 -3 -2 0 1 1 1 2 2 2 2 2 2 2 2 2 2 2 2 1 1 1

GFSGBSN_700_temp_330.txt.gz
Temp
5 5 4 4 5 5 4 4 5 5 5 5 4 4 5 5 6 7 7 8 8 8 8 8 8 8 9 8 8 9 8 8 9 9 9 9 9 9 9 10 10 10 9 9 8 6 6
5 5 5 4 4 4 5 4 4 4 5 4 4 3 4 5 6 6 7 8 8 8 8 8 8 8 9 8 9 9 9 9 9 9 9 9 9 9 9 10 9 9 9 8 7 6 6
3 4 5 5 5 4 4 4 3 3 4 4 4 3 3 4 5 6 7 7 8 8 8 8 8 8 9 9 9 9 9 9 9 9 9 9 9 9 9 9 9 9 9 8 7 7 6
3 3 3 4 5 5 5 4 4 4 3 3 4 3 3 4 5 6 6 7 8 8 8 8 9 8 9 9 9 9 9 9 9 9 9 10 10 9 9 9 9 7 6 7 7 7 7
2 2 3 3 3 4 5 4 4 4 3 3 3 3 4 3 4 5 6 7 7 8 8 8 8 8 8 9 8 8 8 8 8 9 9 10 10 10 9 9 7 7 9 8 7 7 7
1 1 2 2 2 3 3 4 4 4 4 3 3 3 3 4 4 4 5 6 7 7 8 8 8 8 8 9 9 8 8 8 8 8 9 9 9 9 8 8 10 9 9 7 8 8 7
1 0 1 1 1 2 2 3 3 4 4 4 3 3 3 4 4 4 4 6 6 7 7 8 8 8 8 8 8 8 8 8 8 8 8 9 9 8 10 8 9 9 9 8 7 7 7
0 -0 0 0 0 1 1 2 2 3 4 4 3 3 3 3 3 4 4 5 6 7 7 7 8 8 8 8 8 8 7 7 7 7 8 8 8 8 8 9 8 8 9 9 7 8 8
-0 -0 -0 -0 0 -0 0 1 1 2 3 3 3 3 3 2 2 3 4 4 5 6 6 7 7 8 8 7 7 7 7 7 7 7 7 8 7 8 8 8 8 8 9 8 9 8 8
-1 -1 -1 -1 -1 -0 -0 0 1 1 2 3 3 3 3 2 2 3 3 4 5 5 6 7 7 7 7 7 7 7 7 6 6 6 7 7 8 8 8 8 8 8 9 8 8 8 10
-2 -2 -1 -1 -1 -1 -0 -1 -0 0 1 2 3 3 2 2 2 2 2 3 4 5 3 6 6 7 7 7 7 7 7 6 6 6 7 7 8 8 7 7 7 8 8 7 7 7 7
-3 -2 -2 -2 -2 -2 -1 -1 -1 -0 0 1 2 2 2 2 2 2 2 2 3 4 4 5 6 6 6 6 7 7 6 6 6 6 6 7 7 7 6 7 7 7 8 7 7 7 8
-3 -3 -3 -2 -2 -2 -2 -2 -2 -1 -0 0 1 2 2 2 1 1 2 2 2 3 5 5 5 5 5 6 6 6 7 6 6 6 6 6 7 7 7 7 7 7 7 8 8 8 9
-4 -4 -4 -3 -3 -3 -2 -2 -2 -2 -1 -1 0 1 1 1 1 1 1 1 2 3 5 5 5 5 4 5 5 6 6 5 6 6 6 6 6 6 7 7 7 7 7 8 8 9 9
-5 -5 -5 -4 -4 -4 -3 -3 -3 -2 -2 -1 -1 0 1 1 1 1 1 1 2 4 4 5 5 4 4 5 5 5 5 6 5 6 6 6 7 6 6 7 7 6 6 6 7 6 6
-6 -6 -5 -5 -5 -5 -4 -4 -3 -3 -3 -2 -1 -0 0 1 1 1 1 0 1 3 4 4 4 5 5 4 5 5 5 6 6 6 6 6 6 6 6 6 6 6 6 6 6 5 7
-7 -6 -6 -6 -5 -5 -5 -5 -4 -4 -4 -3 -2 -1 -0 0 0 1 1 -0 1 2 3 3 4 5 5 5 4 5 5 6 6 6 5 5 6 5 5 5 5 5 5 6 6 5 7
-7 -7 -7 -7 -6 -6 -6 -5 -5 -4 -4 -4 -3 -2 -1 -1 -0 0 0 -1 -0 1 2 3 3 4 4 5 5 4 5 6 6 6 5 5 5 4 5 6 5 5 4 5 5 5 4
-8 -8 -8 -8 -7 -7 -6 -6 -6 -5 -5 -4 -4 -3 -2 -1 -1 -0 -1 -2 -1 -0 1 2 2 3 4 4 4 5 5 5 6 5 5 5 4 4 4 4 5 5 5 5 5 5 5
-10 -10 -9 -8 -8 -8 -7 -7 -6 -6 -6 -5 -5 -4 -3 -2 -2 -3 -4 -3 -2 -1 0 1 1 2 3 4 4 5 5 5 5 5 5 5 4 5 6 5 5 5 5 5 4 3 4
-11 -10 -10 -9 -8 -8 -8 -8 -7 -7 -6 -6 -5 -5 -4 -4 -4 -3 -4 -3 -3 -2 -2 -0 -0 2 2 3 4 4 4 4 5 5 4 4 4 4 5 5 5 5 4 4 4 4 3
-11 -11 -10 -10 -9 -9 -9 -8 -8 -8 -7 -7 -6 -6 -5 -5 -5 -5 -5 -4 -3 -2 -2 -1 -1 -0 1 2 3 4 4 4 4 5 4 4 4 4 4 5 4 4 4 4 4 3 3
-11 -11 -11 -11 -10 -10 -9 -9 -9 -9 -8 -7 -7 -7 -6 -5 -6 -6 -5 -5 -4 -3 -2 -2 -1 -1 1 2 2 3 4 4 4 4 4 4 4 4 4 4 4 3 5 4 3 4 4
-11 -11 -11 -11 -11 -10 -10 -10 -10 -9 -9 -8 -8 -8 -8 -6 -6 -6 -5 -5 -4 -3 -2 -2 -2 -2 -0 1 2 3 3 3 3 4 4 4 4 3 3 3 2 4 4 4 3 3 3
-11 -12 -12 -11 -11 -11 -11 -11 -11 -10 -10 -9 -9 -9 -9 -7 -7 -5 -5 -5 -5 -4 -3 -2 -2 -2 -2 1 1 2 2 2 3 3 3 3 3 3 3 3 4 4 3 3 3 3 3
-11 -11 -12 -12 -12 -12 -12 -11 -12 -11 -11 -11 -10 -10 -9 -9 -7 -6 -6 -6 -4 -4 -4 -2 -3 -2 -2 -1 -0 1 1 1 2 2 2 3 3 2 2 1 3 3 3 3 3 3 3
-11 -11 -12 -12 -13 -12 -12 -12 -12 -12 -11 -12 -11 -11 -11 -9 -7 -7 -7 -6 -5 -4 -4 -3 -2 -3 -3 -4 -1 1 1 2 2 2 3 2 2 2 1 2 3 3 3 3 2 2 2
-11 -11 -12 -12 -12 -13 -13 -13 -13 -13 -12 -12 -11 -11 -11 -10 -7 -7 -7 -6 -5 -5 -4 -4 -4 -3 -3 -3 -2 0 1 2 2 2 3 3 2 1 0 0 1 3 3 1 2 2 2
-11 -12 -12 -12 -13 -13 -13 -13 -13 -13 -13 -12 -12 -11 -11 -11 -8 -7 -6 -5 -5 -5 -5 -4 -4 -3 -3 -3 -2 -0 1 2 1 1 3 2 2 2 3 3 3 3 3 3 2 2 1

GFSGBSN_700_temp_333.txt.gz
Temp
6 6 6 5 5 5 5 4 5 5 5 5 5 6 5 6 6 7 7 8 8 8 8 9 9 8 8 8 8 9 9 9 9 9 9 8 9 10 10 9 9 9 9 9 8 7 6
5 5 5 5 5 5 5 5 5 5 5 5 6 5 5 5 6 6 7 7 8 8 8 9 9 9 8 8 9 9 9 9 9 9 9 9 9 9 9 9 9 9 10 9 9 6 7
4 4 5 5 5 5 5 5 5 5 5 5 5 5 5 5 5 6 6 7 8 8 8 8 9 8 8 8 9 9 9 9 9 8 9 9 9 9 8 9 9 10 9 9 7 8 7
4 4 4 4 5 5 5 5 5 5 5 5 5 5 5 5 6 6 6 7 7 8 8 8 8 8 8 9 9 9 9 9 9 9 8 9 9 8 8 9 9 8 8 9 8 8 7
3 3 4 4 4 4 4 5 4 5 5 5 5 5 5 5 5 5 6 7 7 8 8 8 8 8 8 9 9 9 8 8 9 9 9 9 9 9 9 8 9 9 12 11 8 7 8
2 2 3 3 3 3 4 4 4 4 5 5 5 5 5 5 5 5 5 6 7 7 8 8 8 8 8 8 9 8 8 8 8 9 9 9 8 8 8 10 12 12 11 11 10 8 8
2 2 2 3 3 3 3 3 3 4 4 5 5 4 5 4 5 5 5 6 6 7 7 6 7 8 8 9 8 8 8 8 8 8 9 8 9 10 10 10 11 12 12 12 11 10 8
1 1 2 2 2 2 2 3 3 3 4 4 4 4 4 4 4 5 5 5 6 7 7 7 8 8 8 9 8 8 8 7 7 8 8 9 9 10 10 10 10 11 11 12 11 9 8
0 0 1 1 1 1 2 2 2 2 3 3 4 4 4 3 4 4 4 5 5 6 6 7 7 7 7 8 7 7 8 7 7 8 8 9 9 9 9 9 10 10 11 12 11 9 8
-1 -0 -0 0 0 1 1 1 2 2 2 2 3 3 3 3 3 3 4 4 5 6 6 6 7 7 8 7 7 8 7 7 7 8 8 9 8 8 8 8 9 10 10 10 10 9 12
-1 -1 -1 -1 -0 -0 0 1 1 1 1 2 2 3 3 3 3 2 3 3 4 5 4 6 6 6 6 7 7 7 8 7 7 7 7 8 8 8 8 8 8 8 9 9 9 10 10
-2 -2 -2 -1 -1 -1 -1 -0 0 1 1 1 2 2 2 3 2 2 2 3 4 4 3 6 5 6 6 6 6 6 7 7 7 6 7 7 7 7 8 7 7 8 8 8 8 9 10
-3 -3 -2 -2 -2 -2 -2 -1 -1 -0 0 1 1 1 2 2 2 2 2 2 3 3 5 6 6 5 6 6 6 6 6 6 7 6 7 6 7 7 7 7 7 7 8 9 9 10 10
-3 -3 -3 -3 -3 -2 -2 -2 -1 -1 -1 -0 0 0 1 2 2 1 1 2 1 4 6 5 5 5 6 7 6 6 7 7 7 7 8 8 8 6 7 7 8 7 8 8 8 11 11
-4 -4 -3 -3 -3 -3 -3 -2 -2 -2 -1 -1 -0 -0 0 1 1 1 1 0 2 4 5 5 5 6 6 6 6 6 6 7 7 7 8 8 9 7 7 7 7 8 7 8 8 7 8
-5 -5 -4 -4 -4 -4 -4 -3 -3 -3 -2 -2 -1 -1 -0 0 1 1 0 1 2 3 4 4 6 6 7 6 6 6 7 7 8 7 7 8 8 6 6 7 7 7 7 7 7 4 8
-6 -6 -5 -5 -5 -5 -5 -4 -4 -4 -3 -3 -2 -2 -0 -0 -0 0 -0 -1 1 2 3 3 5 6 6 7 6 7 8 6 6 6 6 7 7 6 6 6 7 6 6 6 6 7 8
-6 -6 -6 -6 -6 -5 -5 -5 -5 -5 -4 -4 -3 -2 -1 -1 -1 -1 -2 -1 -0 1 2 3 4 4 5 6 6 7 7 6 6 5 5 6 6 7 7 6 6 6 6 6 5 6 6
-7 -7 -6 -6 -6 -6 -6 -6 -6 -5 -5 -4 -4 -4 -2 -2 -2 -3 -2 -1 -2 0 1 2 3 3 4 5 5 6 6 5 6 5 6 5 6 6 7 5 5 5 5 5 5 5 6
-9 -8 -8 -7 -7 -7 -7 -7 -7 -6 -6 -5 -5 -4 -4 -3 -3 -3 -2 -1 -1 -0 1 1 2 2 3 4 5 5 5 5 6 5 5 4 6 6 7 7 6 5 4 5 5 4 5
-9 -9 -9 -9 -8 -8 -8 -8 -7 -7 -6 -6 -6 -5 -5 -4 -3 -3 -3 -1 -1 -1 0 -0 0 1 3 4 4 4 5 4 5 5 5 4 5 5 6 5 5 6 5 5 5 5 5
-9 -9 -10 -10 -9 -9 -9 -8 -8 -8 -7 -7 -6 -6 -5 -5 -5 -5 -5 -3 -2 -0 -0 -1 -1 1 1 3 4 5 5 4 4 4 4 4 5 5 5 5 5 5 5 5 4 4 5
-9 -9 -10 -10 -10 -10 -10 -9 -9 -8 -8 -8 -7 -6 -6 -6 -6 -5 -4 -4 -3 -2 -0 -0 -1 -0 0 1 3 3 3 4 4 3 4 3 4 4 5 5 5 4 5 5 6 5 4
-9 -10 -10 -11 -11 -11 -10 -10 -10 -9 -8 -9 -8 -9 -9 -6 -7 -5 -5 -4 -4 -3 -2 -1 -2 -2 -1 0 2 2 3 3 3 3 3 4 4 3 4 4 2 5 5 5 5 5 5
-10 -10 -11 -12 -12 -11 -11 -11 -10 -10 -9 -9 -10 -10 -9 -7 -8 -6 -6 -5 -4 -4 -3 -2 -2 -2 -2 -1 -1 1 1 2 2 2 3 3 4 3 3 4 5 6 5 4 4 4 4
-10 -10 -11 -12 -12 -12 -12 -12 -11 -11 -10 -10 -10 -11 -10 -10 -8 -8 -7 -5 -5 -4 -3 -2 -2 -2 -2 -2 -3 -2 1 2 2 2 3 3 3 3 2 4 5 6 5 5 4 4 3
-10 -10 -10 -11 -12 -12 -12 -12 -12 -12 -11 -11 -10 -11 -10 -10 -9 -9 -7 -6 -6 -5 -4 -3 -3 -3 -2 -3 -3 -2 1 3 3 2 2 2 2 2 3 4 5 5 3 4 3 4 3
-10 -10 -10 -11 -11 -12 -12 -12 -12 -12 -12 -11 -10 -11 -10 -10 -10 -10 -8 -7 -7 -5 -4 -4 -3 -3 -3 -3 -3 -2 -0 2 3 3 3 2 2 1 2 2 3 4 3 3 4 3 3
-10 -10 -10 -10 -11 -11 -12 -13 -13 -13 -13 -12 -11 -11 -11 -11 -10 -10 -8 -7 -7 -6 -5 -4 -3 -4 -3 -3 -3 -2 -0 1 2 3 3 3 3 3 3 3 4 4 3 4 3 3 2

GFSGBSN_700_temp_336.txt.gz
Temp
5 5 5 5 5 5 5 5 5 5 5 6 5 6 6 6 6 7 7 8 8 8 8 9 9 8 8 8 9 9 9 9 9 9 9 9 9 10 11 10 11 11 9 9 9 8 8
5 5 5 5 5 5 5 5 5 5 6 6 6 6 6 6 6 7 7 8 8 8 8 8 9 9 8 8 8 9 9 9 9 9 9 9 10 9 10 11 10 10 9 8 8 8 8
5 5 5 5 5 5 5 5 5 5 6 6 6 6 6 6 7 7 7 7 8 8 8 8 8 9 8 9 8 9 9 9 9 9 9 10 10 10 10 9 9 9 9 8 8 7 7
4 5 5 5 5 5 5 5 5 5 5 6 6 6 6 6 6 7 7 7 7 8 8 8 8 8 8 8 8 9 9 9 9 9 9 9 9 9 9 9 9 9 9 10 9 8 8
4 4 4 4 5 5 5 5 5 5 5 5 5 6 6 6 6 6 7 7 7 7 8 8 8 8 8 8 9 9 8 8 8 8 9 9 9 9 9 9 9 10 11 11 9 8 8
3 3 4 4 4 4 4 5 5 5 5 5 5 5 6 6 6 6 6 7 7 7 8 8 8 8 8 8 8 8 8 8 8 9 9 9 9 9 9 10 11 11 11 12 11 10 9
2 2 3 3 4 4 4 4 4 5 5 5 5 5 5 5 6 6 6 6 6 7 7 7 7 8 7 8 9 9 8 8 8 8 9 9 9 10 11 11 11 12 11 13 13 11 10
2 2 2 2 3 3 3 4 4 4 5 5 5 5 4 5 5 5 5 5 5 6 7 7 8 8 8 9 8 8 8 8 8 8 9 9 9 10 11 11 11 11 12 13 12 11 10
1 1 1 2 2 2 2 3 3 3 4 4 5 4 4 4 4 5 4 5 5 5 6 7 8 8 8 8 8 7 8 8 8 8 9 9 10 10 10 10 10 11 12 12 12 11 10
0 0 0 1 1 1 2 2 2 3 3 3 4 4 4 4 4 4 4 4 5 5 6 7 7 8 7 8 8 7 7 7 8 8 9 9 9 9 9 10 10 11 10 10 11 10 11
-1 -1 -0 -0 -0 0 1 1 1 2 2 3 3 3 3 3 3 3 4 4 4 5 3 7 7 7 7 7 8 8 8 7 7 8 8 9 9 8 9 9 9 9 9 9 10 10 10
-2 -2 -1 -1 -1 -0 0 -0 0 1 1 2 2 2 3 2 3 3 3 3 3 4 3 7 7 7 7 7 7 8 7 7 7 7 8 8 8 8 8 9 9 8 9 9 9 9 10
-2 -2 -2 -2 -1 -1 -1 -1 -1 -0 0 1 1 2 2 2 2 3 2 2 3 3 6 7 7 7 7 7 7 7 7 7 7 7 7 8 7 7 8 8 8 8 8 9 9 8 9
-3 -3 -2 -2 -2 -1 -1 -2 -1 -1 -0 0 1 1 2 2 2 2 1 1 2 3 6 7 7 7 7 7 7 8 8 7 7 8 8 8 9 8 8 8 8 8 8 8 8 9 10
-4 -3 -3 -3 -3 -2 -2 -2 -2 -1 -1 -0 -0 0 1 1 1 2 1 1 2 4 6 7 7 7 7 8 8 8 7 8 8 8 8 9 9 8 7 7 8 8 8 8 8 8 8
-4 -4 -4 -4 -3 -3 -3 -3 -2 -2 -2 -1 -1 -0 -0 1 0 1 1 2 1 3 5 5 7 7 8 8 7 7 7 8 8 9 8 8 9 7 7 7 7 8 7 7 8 5 7
-5 -5 -5 -5 -4 -4 -4 -3 -3 -3 -3 -2 -2 -2 -1 -1 -0 0 0 1 1 3 3 4 6 7 8 9 8 8 8 8 8 8 8 7 8 7 6 7 7 7 7 7 7 7 7
-6 -6 -6 -5 -5 -5 -4 -4 -4 -4 -4 -3 -3 -3 -2 -1 -1 -0 1 -0 0 2 2 4 4 5 7 7 8 8 8 8 7 7 7 7 7 7 7 7 7 7 7 7 6 6 6
-7 -7 -6 -6 -6 -5 -5 -5 -5 -5 -4 -4 -4 -5 -4 -2 -2 -2 -2 -1 -0 1 1 3 3 4 5 6 7 7 8 7 6 6 6 6 6 7 7 6 6 7 7 6 7 6 6
-8 -7 -7 -7 -7 -6 -6 -6 -5 -6 -5 -5 -5 -5 -4 -3 -3 -3 -2 -1 -0 0 1 1 3 3 4 4 5 6 7 6 6 6 6 6 6 6 7 7 7 6 6 6 6 5 5
-8 -8 -8 -8 -8 -8 -7 -7 -7 -6 -6 -6 -6 -5 -6 -5 -3 -3 -3 -1 -0 1 -0 1 1 2 3 4 5 5 6 5 5 5 5 5 5 6 7 7 6 6 6 5 5 6 5
-9 -9 -9 -9 -9 -9 -8 -8 -7 -7 -7 -7 -6 -7 -6 -5 -5 -4 -4 -3 -2 -1 1 1 0 0 2 3 4 5 5 5 5 5 5 5 5 6 6 6 6 7 7 6 5 5 5
-9 -9 -9 -9 -9 -9 -9 -9 -8 -8 -8 -7 -7 -9 -7 -5 -6 -5 -3 -4 -3 -2 -1 -1 1 1 0 1 2 4 4 4 5 5 5 4 4 5 5 6 6 6 6 6 6 6 6
-9 -9 -9 -9 -9 -9 -9 -9 -9 -9 -8 -8 -8 -9 -8 -7 -6 -5 -4 -4 -3 -3 -2 -1 -1 0 0 -0 1 3 3 4 4 5 4 4 4 4 4 5 1 6 6 6 6 6 6
-9 -9 -9 -9 -9 -9 -9 -10 -9 -9 -9 -9 -9 -9 -9 -8 -7 -6 -5 -5 -4 -4 -3 -3 -3 -1 -1 -1 -1 1 2 2 3 4 4 4 4 4 3 4 5 6 6 6 5 5 5
-9 -9 -9 -9 -9 -9 -10 -10 -10 -10 -10 -9 -10 -10 -9 -9 -7 -8 -7 -7 -6 -5 -4 -3 -1 -2 -2 -2 -2 -1 -1 1 2 3 3 4 4 4 3 3 4 6 6 5 5 5 5
-10 -9 -9 -9 -9 -10 -11 -11 -11 -11 -11 -10 -10 -10 -10 -9 -8 -9 -8 -7 -6 -6 -4 -4 -3 -3 -3 -2 -2 -2 -1 1 3 3 2 3 3 3 3 3 5 6 5 5 4 5 5
-10 -10 -9 -9 -9 -10 -11 -11 -12 -11 -11 -11 -10 -11 -10 -10 -9 -9 -9 -8 -8 -6 -5 -3 -4 -3 -3 -3 -3 -2 -1 0 1 3 3 2 3 2 2 3 3 5 4 4 4 4 4
-10 -10 -10 -9 -9 -10 -10 -11 -12 -12 -12 -12 -11 -11 -11 -11 -9 -9 -9 -8 -8 -7 -5 -4 -4 -3 -4 -3 -3 -2 -1 0 1 1 3 3 3 3 3 4 5 4 4 4 4 4 4

GFSGBSN_700_temp_339.txt.gz
Temp
6 6 6 6 6 6 6 6 6 6 6 6 7 7 7 7 7 7 7 7 8 8 9 9 9 9 8 8 8 8 9 9 9 9 9 10 9 9 10 10 10 11 10 10 9 9 8
6 6 6 6 6 6 6 6 6 6 6 6 7 7 7 7 7 7 7 7 7 8 8 9 9 9 9 9 8 8 9 9 9 9 9 10 10 9 10 10 10 10 10 10 10 8 8
5 5 5 6 6 6 6 6 6 6 6 6 6 7 7 7 7 7 7 7 7 8 8 9 9 9 9 9 8 8 8 9 9 9 9 10 10 9 8 10 10 10 9 9 8 9 9
4 5 5 5 5 6 6 6 6 6 6 6 6 6 7 7 7 7 7 8 7 8 8 8 8 8 9 9 9 9 9 9 9 9 9 9 9 9 10 9 9 9 9 9 9 9 9
4 4 4 4 5 5 6 6 6 6 6 6 6 6 6 7 7 7 7 8 7 7 8 8 8 8 9 9 9 9 8 8 8 8 8 9 9 9 9 9 9 9 9 10 9 9 9
3 3 4 4 4 4 5 5 5 6 6 6 6 6 6 6 7 7 7 7 7 7 8 8 8 8 8 8 8 9 8 8 8 8 9 9 9 9 9 9 9 10 10 10 9 8 9
2 3 3 3 4 4 4 4 5 5 6 5 6 6 6 6 6 7 7 7 6 6 7 8 7 8 8 8 8 8 9 8 8 8 9 9 9 9 10 10 10 11 9 11 11 10 9
1 2 2 2 3 3 4 4 4 4 5 5 5 5 5 5 6 6 6 6 6 6 7 7 8 9 8 8 8 8 8 8 8 8 9 9 9 9 10 10 10 11 11 11 11 11 9
1 1 1 1 2 2 3 3 3 4 4 4 5 5 5 5 5 5 5 5 5 5 6 7 8 8 8 8 8 9 8 8 8 8 8 9 9 9 9 10 10 11 10 10 10 10 10
-0 0 0 1 1 1 2 2 3 3 3 4 4 5 5 4 4 5 5 5 5 5 5 7 8 8 8 7 8 8 7 8 8 8 8 9 9 9 9 10 10 10 10 10 10 10 10
-1 -1 -0 -0 -0 0 1 1 2 2 2 3 3 4 4 4 4 4 5 4 4 4 0 7 7 7 8 8 8 8 7 8 8 8 8 8 9 9 9 9 9 9 9 9 10 10 10
-2 -2 -1 -1 -1 -0 -0 0 1 1 2 2 3 3 3 3 3 4 3 3 3 4 4 7 7 7 7 7 8 7 8 7 8 7 8 8 8 8 8 8 9 9 9 9 9 9 8
-3 -2 -2 -2 -1 -1 -1 -0 0 0 1 1 2 2 3 2 3 3 2 2 3 3 6 7 7 7 7 7 7 7 7 7 7 7 7 8 8 8 8 8 8 8 8 8 7 6 6
-3 -3 -3 -2 -2 -2 -1 -1 -1 -0 0 1 1 2 2 2 2 2 2 1 2 3 6 7 7 7 7 7 7 7 7 7 7 7 8 7 7 8 8 8 8 8 8 8 6 6 8
-4 -4 -3 -3 -3 -2 -2 -2 -1 -1 -0 0 0 1 1 1 1 2 2 1 2 4 6 6 7 7 7 7 7 7 7 7 7 7 7 8 8 8 8 8 7 8 8 8 8 8 8
-5 -4 -4 -4 -3 -3 -3 -2 -2 -1 -1 -0 -0 0 1 0 0 1 1 1 2 3 5 5 5 7 7 7 7 7 7 8 7 8 8 8 8 8 8 8 7 8 7 8 8 3 5
-5 -5 -5 -5 -4 -4 -3 -3 -3 -2 -2 -1 -1 -1 -1 -0 -0 0 1 1 1 2 4 4 5 5 7 7 8 8 7 7 8 8 8 8 8 7 7 7 7 7 7 7 7 7 4
-6 -6 -6 -5 -5 -4 -4 -3 -3 -3 -2 -3 -2 -2 -2 -1 -1 -0 0 1 1 2 3 2 4 4 5 6 7 8 7 7 7 8 8 8 8 7 7 7 7 7 7 7 7 6 7
-7 -7 -7 -6 -6 -5 -5 -4 -4 -3 -4 -4 -4 -4 -3 -3 -2 -1 -0 0 0 1 2 2 2 3 5 5 5 7 7 7 7 8 7 7 7 7 6 6 7 7 7 7 7 7 7
-8 -8 -7 -7 -6 -6 -5 -5 -4 -4 -4 -5 -5 -5 -4 -4 -2 -3 -3 -1 -1 -0 2 1 1 3 3 4 4 6 6 7 7 7 7 6 6 6 6 7 7 7 7 7 6 6 6
-8 -8 -9 -8 -7 -7 -6 -6 -5 -5 -5 -6 -6 -5 -5 -5 -4 -3 -3 -3 -2 -1 -0 1 1 1 3 3 4 5 5 5 6 6 6 6 6 6 6 6 6 7 7 7 7 6 5
-9 -9 -9 -8 -8 -7 -7 -7 -6 -7 -7 -7 -7 -7 -6 -5 -4 -4 -4 -3 -2 -1 -1 0 1 1 2 2 3 4 5 4 5 5 5 5 5 6 6 6 6 6 7 6 6 6 6
-9 -8 -9 -8 -8 -8 -8 -8 -8 -8 -8 -8 -8 -7 -6 -5 -5 -5 -4 -4 -3 -2 -1 -2 -1 -0 1 2 2 2 3 4 4 4 5 5 5 5 5 6 6 6 6 6 6 6 6
-9 -8 -9 -8 -8 -8 -8 -9 -9 -9 -9 -8 -8 -7 -7 -6 -6 -5 -5 -5 -5 -4 -3 -2 -2 -1 -0 1 1 1 2 3 4 4 5 5 5 4 5 5 1 6 6 6 6 6 6
-9 -9 -9 -8 -9 -9 -9 -9 -9 -9 -9 -9 -9 -8 -9 -8 -7 -6 -6 -6 -5 -4 -3 -3 -3 -2 -1 -1 -0 0 1 2 3 4 4 4 4 4 4 4 5 6 6 6 6 6 6
-9 -9 -9 -9 -9 -9 -9 -9 -9 -9 -10 -9 -9 -9 -9 -9 -8 -8 -6 -6 -5 -5 -4 -4 -4 -3 -2 -1 -1 -0 -0 1 2 3 4 4 4 4 3 3 1 5 6 6 6 5 5
-9 -9 -9 -9 -9 -9 -9 -10 -10 -10 -10 -10 -10 -10 -10 -10 -8 -9 -8 -7 -6 -5 -4 -3 -3 -3 -3 -1 -2 -1 -1 0 1 2 3 4 4 4 4 3 4 5 5 5 6 6 5
-9 -9 -9 -9 -9 -9 -9 -10 -10 -11 -11 -10 -10 -11 -10 -11 -9 -9 -9 -8 -7 -6 -5 -4 -4 -4 -3 -3 -3 -2 -1 0 1 2 3 3 3 3 3 3 3 4 5 5 5 5 5
-9 -10 -9 -9 -9 -9 -9 -10 -10 -11 -11 -11 -10 -11 -11 -11 -9 -9 -9 -9 -8 -7 -5 -4 -5 -4 -3 -3 -3 -3 -2 -1 0 1 2 2 3 3 3 3 5 4 5 5 5 5 5

GFSGBSN_700_temp_342.txt.gz
Temp
6 6 6 6 6 6 6 6 7 7 7 7 7 7 8 8 8 8 8 7 8 8 8 9 9 9 9 8 8 8 9 9 9 9 9 9 9 9 9 10 10 10 9 10 10 9 9
6 6 6 6 6 6 6 6 7 7 7 7 7 7 8 8 8 8 8 7 8 8 8 8 8 8 9 8 8 9 8 8 9 9 9 10 9 9 9 9 9 10 9 10 9 8 7
5 5 6 6 6 6 6 6 6 7 7 7 7 7 8 8 8 8 8 8 7 8 8 8 9 8 9 9 8 9 9 9 9 9 9 9 9 9 9 9 9 9 9 9 9 8 7
4 5 5 5 5 5 6 6 6 6 7 7 7 7 7 8 8 8 8 8 8 7 8 8 8 8 9 9 8 9 9 9 8 9 9 9 9 8 9 9 9 9 9 9 9 9 8
4 4 4 4 5 5 5 6 6 6 6 7 7 7 7 7 8 8 8 8 8 8 8 8 8 8 9 9 9 9 8 9 8 8 9 9 9 8 9 9 9 9 9 9 9 9 9
3 3 4 4 4 4 5 5 5 6 6 6 7 7 7 8 7 8 8 8 8 8 8 7 8 8 8 9 9 9 8 8 9 8 8 8 9 9 9 9 10 10 9 9 9 10 9
2 3 3 3 4 4 4 4 5 5 6 6 6 7 7 7 7 8 7 7 7 8 8 7 8 8 8 8 8 8 8 8 8 8 8 8 9 9 9 9 9 9 9 10 10 10 10
2 2 2 3 3 3 4 4 4 4 5 5 6 6 7 7 7 7 7 7 6 7 8 7 7 8 8 8 8 8 8 8 8 8 9 8 9 9 9 9 10 10 9 10 11 11 10
1 1 1 1 2 2 3 3 3 4 4 5 5 6 6 6 7 7 6 7 6 6 6 8 8 8 8 8 8 8 8 8 8 8 8 8 9 9 9 9 9 10 10 10 10 10 10
-0 0 1 1 1 1 2 2 2 3 3 4 4 5 5 6 6 6 5 5 5 5 5 8 8 8 8 7 8 8 8 8 8 8 8 8 9 9 9 9 9 9 10 9 9 9 9
-1 -1 -0 -0 0 0 1 1 1 2 2 3 3 4 4 5 5 5 4 4 4 5 -2 7 7 7 8 8 8 8 8 8 8 7 7 8 8 9 9 9 9 9 9 9 9 9 10
-1 -1 -1 -1 -0 -0 0 0 1 1 1 2 2 3 4 4 5 4 4 4 3 4 3 6 7 7 7 7 7 7 7 7 7 7 7 8 8 8 8 8 9 9 9 9 9 9 8
-2 -2 -2 -1 -1 -1 -1 -0 -0 0 1 1 1 2 3 3 4 4 3 3 2 3 6 6 7 7 7 7 7 6 7 7 7 7 7 7 8 8 8 8 8 8 8 8 7 5 6
-3 -3 -3 -2 -2 -2 -1 -1 -1 -0 0 1 1 1 2 2 3 3 3 2 1 3 6 6 6 7 7 7 7 7 7 7 7 7 7 7 7 8 8 8 8 8 8 8 6 4 6
-4 -4 -3 -3 -3 -2 -2 -2 -1 -1 -0 0 1 1 1 2 2 3 2 1 2 4 5 5 6 6 6 7 6 7 7 7 7 7 7 7 7 8 8 8 7 7 7 8 8 7 7
-4 -4 -4 -4 -3 -3 -3 -3 -2 -2 -1 -1 -0 -0 0 1 2 2 2 2 2 4 4 4 4 6 7 7 7 7 7 7 7 7 7 7 7 7 8 7 7 7 8 7 7 3 5
-5 -5 -5 -4 -4 -4 -4 -3 -3 -2 -2 -2 -1 -1 -1 0 1 1 1 1 2 3 2 3 3 4 5 6 6 7 7 7 7 7 7 7 7 7 7 7 8 7 7 7 7 7 3
-6 -5 -5 -5 -5 -5 -4 -4 -4 -3 -3 -2 -2 -2 -1 -1 -0 0 1 1 2 2 2 2 2 3 4 5 6 7 7 7 7 7 7 7 7 7 7 7 7 7 7 7 7 6 6
-7 -6 -6 -6 -6 -6 -5 -5 -4 -4 -3 -3 -2 -2 -2 -1 -1 -1 -0 0 0 1 2 1 2 2 3 4 4 5 7 7 7 7 7 7 7 6 6 6 7 7 7 7 7 7 7
-7 -7 -7 -7 -7 -6 -6 -5 -5 -4 -4 -4 -3 -3 -3 -2 -2 -2 -2 -1 -1 -0 1 1 1 2 2 3 3 4 5 6 7 7 7 7 7 7 6 7 6 6 7 6 6 6 6
-7 -7 -7 -8 -8 -7 -7 -6 -6 -5 -5 -5 -4 -4 -3 -4 -3 -3 -3 -3 -2 -1 -1 0 1 1 2 2 3 4 4 5 6 7 7 7 7 7 7 6 7 7 7 7 6 6 6
-7 -8 -8 -8 -8 -8 -8 -7 -6 -6 -5 -6 -5 -5 -4 -4 -4 -3 -4 -4 -3 -2 -2 -1 -1 0 0 1 2 3 3 4 5 5 6 6 6 6 6 6 6 6 6 6 6 6 6
-8 -8 -8 -8 -8 -8 -8 -7 -7 -6 -6 -6 -6 -5 -5 -5 -5 -5 -5 -5 -4 -3 -2 -2 -2 -1 0 0 1 1 2 3 4 4 5 5 5 5 5 6 6 5 6 6 6 6 6
-8 -8 -9 -9 -9 -8 -8 -8 -8 -8 -7 -7 -7 -6 -6 -6 -6 -6 -6 -6 -5 -4 -2 -2 -2 -2 -1 -0 1 1 1 2 3 3 4 4 5 5 5 5 -0 6 6 6 6 6 6
-8 -8 -9 -9 -9 -9 -8 -8 -8 -8 -8 -8 -8 -7 -7 -7 -7 -7 -6 -6 -5 -4 -3 -2 -3 -3 -2 -1 -1 0 0 1 3 4 4 4 4 4 4 4 5 5 6 6 6 6 6
-8 -9 -9 -9 -9 -9 -8 -9 -9 -9 -9 -9 -9 -8 -8 -8 -8 -7 -7 -6 -6 -5 -4 -4 -4 -3 -3 -2 -1 -1 -0 1 2 3 4 4 4 4 4 4 1 5 6 6 6 5 6
-8 -9 -9 -9 -9 -9 -9 -9 -9 -9 -9 -9 -9 -9 -9 -8 -9 -9 -8 -7 -7 -6 -5 -4 -4 -4 -4 -3 -2 -2 -0 1 1 2 3 3 3 4 3 3 4 5 6 5 6 6 6
-9 -9 -9 -9 -9 -9 -9 -9 -9 -9 -9 -10 -10 -10 -10 -9 -9 -9 -9 -8 -8 -8 -7 -6 -5 -5 -4 -4 -4 -2 -1 0 1 1 2 3 3 3 3 3 3 5 5 5 6 6 5
-9 -9 -9 -9 -9 -9 -9 -9 -9 -9 -9 -10 -11 -11 -10 -10 -9 -9 -9 -8 -8 -9 -8 -7 -6 -5 -5 -4 -4 -4 -3 -1 -0 0 1 2 3 3 3 3 4 4 5 4 5 5 5

GFSGBSN_700_temp_345.txt.gz
Temp
6 6 6 6 6 6 7 7 7 7 7 8 8 8 8 8 8 8 8 8 8 8 8 9 9 9 8 9 8 8 8 9 9 9 9 9 9 9 9 9 9 9 9 9 10 10 9
6 6 6 6 6 6 6 6 7 7 7 8 8 8 8 8 8 8 9 9 8 8 8 8 9 9 9 8 9 9 9 9 8 9 9 9 9 9 9 9 9 9 9 9 9 9 9
5 5 5 6 6 6 6 6 6 7 7 7 8 8 8 8 8 8 8 9 8 8 8 8 9 9 9 8 8 9 9 9 9 9 9 8 9 9 9 9 9 9 9 9 9 9 8
4 5 5 5 5 6 6 6 6 6 7 7 7 8 8 8 8 8 8 8 8 9 8 8 8 9 9 8 9 9 9 9 9 9 9 9 9 9 8 9 9 9 9 8 8 8 8
4 4 4 4 5 5 5 6 6 6 6 7 7 8 8 8 8 8 8 8 8 8 8 8 8 9 9 9 8 8 9 9 9 9 9 9 9 9 8 8 9 9 9 9 9 9 8
3 3 3 4 4 4 5 5 6 6 6 6 7 7 8 8 8 8 8 8 8 8 8 8 8 8 9 9 8 8 8 8 8 8 9 9 8 9 9 9 9 9 9 9 9 9 9
2 2 3 3 3 3 4 4 5 5 6 6 6 7 7 8 8 8 8 8 8 8 8 8 8 8 9 9 8 8 8 8 8 8 8 8 8 9 9 9 9 9 9 9 9 10 9
1 1 2 2 3 3 3 3 4 4 5 5 6 6 7 7 8 8 8 7 7 8 8 8 8 8 8 8 8 8 8 8 7 8 8 8 8 9 9 9 9 9 10 9 9 10 10
0 1 1 1 2 2 2 3 3 3 4 4 5 5 6 6 7 7 7 7 7 7 7 8 8 8 8 8 8 8 8 7 7 8 8 8 8 8 8 9 9 9 10 9 10 10 10
-0 0 0 1 1 1 1 2 2 3 3 3 4 4 5 6 6 7 7 6 6 6 6 8 9 8 7 7 8 8 8 8 8 8 7 8 8 8 9 9 9 9 9 9 9 9 9
-1 -1 -0 -0 0 0 1 1 1 2 2 3 3 4 4 5 5 6 6 6 5 5 -1 7 7 7 7 7 8 8 8 8 8 8 7 7 8 8 9 8 9 9 9 9 9 9 9
-2 -1 -1 -1 -1 -0 0 0 1 1 2 2 2 3 3 4 5 5 5 5 5 4 3 6 6 7 7 7 7 8 8 7 8 7 7 7 7 8 8 8 8 8 8 8 8 9 7
-2 -2 -2 -2 -1 -1 -1 -0 -0 0 1 1 2 2 2 3 4 4 4 4 3 3 6 6 6 6 7 7 7 7 7 7 7 6 7 7 7 7 8 8 8 8 8 8 6 4 4
-3 -3 -2 -2 -2 -1 -1 -1 -1 -0 0 1 1 2 2 2 3 3 3 2 2 4 6 5 6 6 6 7 7 7 6 7 7 7 7 7 7 7 7 8 8 8 8 7 5 3 5
-3 -3 -3 -3 -2 -2 -2 -2 -1 -1 -0 0 0 1 1 2 2 2 2 1 3 5 5 5 5 6 6 6 6 6 6 6 6 7 6 7 7 7 7 8 8 7 7 7 8 6 5
-4 -3 -3 -3 -3 -3 -3 -2 -2 -1 -1 -1 -0 -0 0 1 2 2 1 1 2 4 4 4 5 5 6 6 6 6 6 7 7 7 7 7 7 7 8 7 7 7 7 7 7 2 4
-5 -4 -4 -4 -4 -4 -3 -3 -3 -2 -2 -1 -1 -1 -0 0 1 1 1 1 2 3 3 3 3 4 4 5 5 6 6 7 7 7 7 7 7 7 7 7 8 7 7 7 7 6 2
-6 -5 -5 -5 -5 -4 -4 -4 -3 -3 -3 -2 -2 -2 -1 -0 -0 0 1 1 1 2 2 2 2 3 3 3 4 5 6 6 7 7 6 7 7 6 7 7 7 7 7 7 7 5 6
-6 -6 -6 -6 -5 -5 -5 -4 -4 -4 -3 -3 -3 -2 -2 -1 -1 -0 -0 0 1 2 2 1 1 2 2 2 3 4 5 6 6 7 7 7 6 6 6 6 7 7 7 7 7 7 6
-7 -7 -7 -6 -6 -6 -6 -5 -5 -5 -4 -4 -3 -3 -3 -3 -2 -2 -2 -1 -1 0 1 1 1 1 2 2 2 3 4 5 6 7 7 7 7 7 6 7 7 7 7 7 7 6 6
-7 -7 -8 -7 -7 -7 -6 -6 -6 -5 -5 -4 -4 -4 -4 -4 -3 -3 -3 -3 -2 -1 -0 -0 -0 1 1 1 2 2 3 4 4 6 6 7 7 7 7 7 7 7 7 7 6 6 6
-7 -7 -7 -8 -8 -7 -7 -7 -7 -6 -5 -5 -5 -4 -4 -4 -3 -3 -4 -4 -3 -3 -2 -1 -1 -1 -0 -0 1 1 2 3 4 5 5 6 6 6 6 6 7 6 6 6 6 6 6
-7 -7 -8 -8 -8 -8 -8 -8 -8 -7 -6 -6 -5 -5 -5 -4 -4 -4 -5 -5 -4 -3 -3 -3 -2 -2 -1 -1 -0 -0 1 2 3 4 4 5 5 6 5 6 5 5 6 6 6 6 6
-8 -8 -8 -8 -8 -8 -9 -8 -8 -7 -7 -7 -6 -6 -5 -5 -5 -5 -5 -5 -5 -5 -4 -3 -3 -3 -2 -2 -1 -0 -0 1 2 3 3 4 5 5 5 5 -0 5 6 6 6 6 6
-7 -8 -8 -8 -9 -9 -9 -9 -8 -8 -7 -7 -7 -6 -6 -6 -6 -6 -5 -5 -5 -5 -5 -4 -3 -3 -3 -2 -2 -1 -0 1 1 2 2 2 3 4 4 4 5 5 6 6 6 7 6
-7 -8 -8 -8 -8 -9 -9 -9 -9 -8 -8 -8 -7 -7 -7 -6 -6 -6 -6 -6 -6 -5 -5 -5 -4 -4 -4 -3 -2 -2 -1 0 0 1 3 2 2 3 4 4 0 5 6 5 6 6 7
-8 -8 -8 -8 -9 -9 -9 -9 -8 -8 -8 -8 -8 -8 -8 -8 -8 -7 -7 -7 -6 -6 -6 -5 -5 -5 -4 -4 -3 -3 -2 -1 0 1 2 2 2 2 3 4 4 5 6 6 5 6 6
-8 -8 -8 -8 -9 -9 -9 -8 -8 -8 -8 -8 -9 -8 -9 -8 -8 -8 -8 -8 -7 -7 -7 -6 -5 -5 -5 -5 -4 -4 -3 -2 -1 0 2 3 3 2 2 3 3 4 5 5 5 5 6
-8 -8 -8 -9 -9 -9 -9 -9 -8 -8 -9 -9 -9 -9 -9 -9 -8 -9 -9 -8 -8 -9 -8 -8 -7 -6 -6 -5 -5 -5 -4 -3 -2 -1 0 1 3 3 3 3 4 4 4 4 5 5 5